NOAA NWS Hourly Roundups by Site

Regional Weather Roundup for Omaha, NE

To Select Another Site Choose from List

Select Site:  

000
ASUS43 KOAX 020010
RWRNE

WEATHER ROUNDUP FOR NEBRASKA
NATIONAL WEATHER SERVICE OMAHA NE
600 PM CST MON MAR 01 2021

NOTES: SATELLITE DATA IS BEING USED TO AUGMENT CLOUD COVER ABOVE
       12000 FEET.
       "FAIR" INDICATES FEW OR NO CLOUDS BELOW 12,000 FEET WITH NO
       SIGNIFICANT WEATHER AND/OR OBSTRUCTIONS TO VISIBILITY.


NEZ001>004-019>022-054>056-020100-
NEBRASKA PANHANDLE

CITY           SKY/WX    TMP DP  RH WIND       PRES   REMARKS
SCOTTSBLUFF    CLEAR     53  13  20 S6        30.15F
6HR MIN TEMP:  44; 6HR MAX TEMP:  55;

ALLIANCE       CLEAR     48  16  27 S7        30.15F
6HR MIN TEMP:  43; 6HR MAX TEMP:  50;

CHADRON        CLEAR     49  23  36 SW9       30.13F
6HR MIN TEMP:  40; 6HR MAX TEMP:  51;

GORDON         CLEAR     47  20  34 SW9       30.14S
6HR MIN TEMP:  42; 6HR MAX TEMP:  50;

KIMBALL        CLEAR     47   8  19 SW9       30.18F
SIDNEY         CLEAR     47   9  21 SW10      30.18F
6HR MIN TEMP:  44; 6HR MAX TEMP:  51;

$$

NEZ057>060-069>072-079>082-020100-
SOUTHWEST NEBRASKA

CITY           SKY/WX    TMP DP  RH WIND       PRES   REMARKS
NORTH PLATTE   CLEAR     50  20  30 SW8       30.24F
6HR MIN TEMP:  48; 6HR MAX TEMP:  54;

IMPERIAL       CLEAR     49  17  28 S3        30.24S
6HR MIN TEMP:  47; 6HR MAX TEMP:  52;

LEXINGTON      CLEAR     49  26  39 SE6       30.26S
MCCOOK         CLEAR     50  18  28 SW6       30.26S
6HR MIN TEMP:  49; 6HR MAX TEMP:  53;

OGALLALA       CLEAR     50  18  27 S7        30.22S
$$

NEZ005>010-023>029-035>040-094-020100-
NORTH CENTRAL NEBRASKA

CITY           SKY/WX    TMP DP  RH WIND       PRES   REMARKS
VALENTINE      CLEAR     50  22  33 SW12      30.17F
6HR MIN TEMP:  38; 6HR MAX TEMP:  53;

AINSWORTH      CLEAR     47  22  38 S6        30.19F
BROKEN BOW     CLEAR     48  26  42 S7        30.23F
6HR MIN TEMP:  45; 6HR MAX TEMP:  52;

O`NEILL        CLEAR     43  22  44 S6        30.24F
ORD            CLEAR     47  24  40 S5        30.25F
6HR MIN TEMP:  42; 6HR MAX TEMP:  50;

THEDFORD       CLEAR     50  19  29 SW8       30.21S
$$

NEZ041-046>049-061>064-073>077-083>087-020100-
SOUTH CENTRAL NEBRASKA

CITY           SKY/WX    TMP DP  RH WIND       PRES   REMARKS
GRAND ISLAND   CLEAR     46  27  47 SE6       30.30S
6HR MIN TEMP:  44; 6HR MAX TEMP:  51;

AURORA         CLEAR     42  33  69 SE5       30.30F
HASTINGS       CLEAR     47  23  38 CALM      30.30S
6HR MIN TEMP:  44; 6HR MAX TEMP:  50;

HEBRON         CLEAR     47  26  43 CALM      30.33R
HOLDREGE       CLEAR     47  27  45 SE5       30.28S
KEARNEY        CLEAR     46  26  45 S7        30.28F
YORK           CLEAR     41  28  60 CALM      30.32S
$$

NEZ011>018-030>034-042>045-020100-
NORTHEAST NEBRASKA

CITY           SKY/WX    TMP DP  RH WIND       PRES   REMARKS
NORFOLK        CLEAR     39  23  52 SE7       30.31F WCI  34
6HR MIN TEMP:  36; 6HR MAX TEMP:  43;

ALBION         CLEAR     41  28  58 SE7       30.29F
BLAIR          CLEAR     34  28  77 NE7       30.35R WCI  28
COLUMBUS       CLEAR     39  29  67 E7        30.34S WCI  34
FREMONT        CLEAR     38  28  66 NE6       30.36R WCI  33
TEKAMAH        CLEAR     35  25  66 N6        30.38R WCI  30
6HR MIN TEMP:  35; 6HR MAX TEMP:  38;

WAYNE          CLEAR     35  27  72 SE7       30.33F WCI  29
$$

NEZ050>053-065>068-078-088>093-020100-
SOUTHEAST NEBRASKA

CITY           SKY/WX    TMP DP  RH WIND       PRES   REMARKS
LINCOLN        CLEAR     41  27  57 NE7       30.35S
6HR MIN TEMP:  41; 6HR MAX TEMP:  47;

OMAHA EPPLEY   PTCLDY    35  26  69 E8        30.37S WCI  29
6HR MIN TEMP:  35; 6HR MAX TEMP:  41;

BEATRICE       CLEAR     44  28  53 NE5       30.33R
FALLS CITY     CLEAR     44  28  53 N8        30.33R
6HR MIN TEMP:  44; 6HR MAX TEMP:  51;

NEBRASKA CITY  CLEAR     39  29  66 NE7       30.35R WCI  34
PLATTSMOUTH    CLEAR     37  28  72 NE8       30.35S WCI  30
$$

NEZ044-045-051>053-067-020100-
OMAHA AREA

CITY           SKY/WX    TMP DP  RH WIND       PRES   REMARKS
OMAHA EPPLEY   PTCLDY    35  26  69 E8        30.37S WCI  29
6HR MIN TEMP:  35; 6HR MAX TEMP:  41;

BLAIR          CLEAR     34  28  77 NE7       30.35R WCI  28
FREMONT        CLEAR     38  28  66 NE6       30.36R WCI  33
MILLARD        CLEAR     39  27  61 E7        30.36R WCI  34
OFFUTT AFB     CLEAR     36  27  70 NE7       30.36S WCI  30
PLATTSMOUTH    CLEAR     37  28  72 NE8       30.35S WCI  30
WAHOO          CLEAR     39  30  69 NE3       30.35S
$$


 

View Past Reports for Omaha, NE.

Products Courtesy of NOAA-NWS
NWS Information Parsing Script by Ken True at Saratoga Weather - Script by SE Lincoln Weather.